Regional Weather Roundup
Issued by NWS Cleveland, OH

Home | Current Version | Previous Version | Graphics & Text | Print | Product List | Glossary On
Versions: 1 2 3 4 5 6 7 8 9 10 11 12 13 14 15 16 17 18 19 20 21 22 23 24 25 26 27 28 29 30 31 32 33 34 35 36 37 38 39 40 41 42 43 44 45 46 47 48 49 50
000
ASUS41 KCLE 300902
RWRCLE
OHIO REGIONAL WEATHER ROUNDUP
NATIONAL WEATHER SERVICE CLEVELAND, OH
400 AM EST FRI JAN 30 2015

NOTE: "FAIR" INDICATES FEW OR NO CLOUDS BELOW 12,000 FEET WITH NO
SIGNIFICANT WEATHER AND/OR OBSTRUCTIONS TO VISIBILITY.

OHZ001>008-015>018-024>027-034-035-043-044-301000-
   NORTHWEST OHIO

CITY           SKY/WX    TMP DP  RH WIND       PRES   REMARKS
DEFIANCE       MOCLDY    24  13  62 NW17      30.25R WCI  11
FINDLAY        MOCLDY    26  16  65 NW20G26   30.18R WCI  12
TOLEDO EXPRESS PTCLDY    22  12  65 NW14G26   30.21R WCI   9
TOLEDO EXEC    CLOUDY    24  13  62 NW17      30.21R WCI  11
LIMA           CLOUDY    29  18  63 NW18G32   30.19R WCI  16
$$

OHZ009>014-019>023-028>033-038-089-301000-
   NORTHEAST OHIO

CITY           SKY/WX    TMP DP  RH WIND       PRES   REMARKS
CLE-HOPKINS    LGT SNOW  25  20  81 NW22G30   30.13R BLWGSNOWWCI  10
CLE-LAKEFRONT  LGT SNOW  27  22  81 NW23G33   30.11R WCI  12
CUY CO. ARPT   NOT AVBL
LORAIN-ELYRIA  FLURRIES  24  16  71 NW22G30   30.13R WCI   9
ASHTABULA      LGT SNOW  24  20  84 NW15G31   30.04R FOG     WCI  11
AKRON-CANTON   LGT SNOW  27  22  81 NW15      30.05R WCI  15
WOOSTER        CLOUDY    26  18  71 N20G29    30.09R WCI  12
MANSFIELD      LGT SNOW  25  19  78 NW26G35   30.09R WCI   9
YOUNGSTOWN     LGT SNOW  26  24  92 NW14G23   30.01R VSB 3/4 WCI  14
$$

OHZ042-051>053-060>062-070>072-077>081-301000-
  SOUTHWEST OHIO

CITY           SKY/WX    TMP DP  RH WIND       PRES   REMARKS
CINC-COVINGTON CLOUDY    33  26  75 NW13      30.23S WCI  24
CINC-LUNKEN    CLOUDY    34  24  67 W8        30.26R WCI  27
HAMILTON       CLOUDY    34  26  72 W13       30.24R WCI  25
DAYTON         CLOUDY    30  26  85 NW16      30.21R WCI  19
WRIGHT-PAT AFB LGT SNOW  30  25  80 NW16      30.19R FOG     WCI  19
DAYTON GENERAL CLOUDY    33  27  78 W12       30.19R WCI  24
WILMINGTON     CLOUDY    31  26  82 W12       30.17S WCI  22
$$

OHZ036-037-039>041-045>050-054>059-063>069-073>076-082>088-301000-
  CENTRAL AND SOUTHEAST OHIO

CITY           SKY/WX    TMP DP  RH WIND       PRES   REMARKS
COLUMBUS       LGT SNOW  30  27  86 NW14      30.14R VSB 1   WCI  20
OSU AIRPORT    FLURRIES  30  24  78 NW24G35   30.13R WCI  16
BOLTON FIELD   NOT AVBL
RICKENBACK AFB NOT AVBL
NEWARK         FLURRIES  32  27  81 W7        30.11R WCI  26
MARION         LGT SNOW  26  19  74 NW21G31   30.15R WCI  12
LANCASTER      LGT SNOW  31  27  85 NW10G22   30.13R FOG     WCI  22
ZANESVILLE     LGT SNOW  29  24  82 NW12      30.10R WCI  19
NEW PHILLY     CLOUDY    30  23  75 NW10G16   30.09R WCI  21
$$


USA.gov is the U.S. government's official web portal to all federal, state and local government web resources and services.